Retour au catalogue

STARLINK-37425

ActifCommunicationsSSO
NORAD 68815·PAYLOAD·🇺🇸 United States

Lancé Apr 23, 2026 depuis Vandenberg Space Force Base

Loading…

Prochains Passages (prochaines 24 heures)

TLE

FraisSource: CelesTrak SupGP

Époque: Sep 14, 2026, 22:54 UTC

1 68815C 26089P   26257.95465278  .00088310  00000+0  27420-2 0  2574
2 68815  97.2852 103.8049 0001827  91.9668 127.3868 15.33386465    15

Suivez STARLINK-37425 en temps réel avec AllMySat

Download on the App Store